Regional Weather Roundup
Issued by NWS Goodland, KS

Home | Current Version | Previous Version | Text Only | Print | Product List | Glossary On
Versions: 1 2 3 4 5 6 7 8 9 10 11 12 13 14 15 16 17 18 19 20 21 22 23 24 25 26 27 28 29 30 31 32 33 34 35 36 37 38 39 40 41 42 43 44 45 46 47 48 49 50
000
ASUS43 KGLD 280508
RWRGLD

GOODLAND FORECAST AREA HOURLY WEATHER ROUNDUP
NATIONAL WEATHER SERVICE GOODLAND KS
1100 PM MDT FRI MAR 27 2015

...OFFICIAL OBSERVATIONS...

CITY           SKY/WX    TMP DP  RH WIND       PRES   REMARKS
GOODLAND KS    CLEAR     48  35  60 W9        30.02F
HILL CITY KS   CLEAR     47  34  60 NE7       29.97R
IMPERIAL NEB   PTCLDY    47  32  56 W3        30.00R
MCCOOK NEB     MOCLDY    45  34  65 NE3       29.98R
AKRON CO       CLEAR     48  32  53 W10       30.06F
BURLINGTON CO  PTCLDY    45  33  63 W9        30.05F
LIMON CO       PTCLDY    50  31  48 W8        30.12F
$$

...UNOFFICIAL OBSERVATIONS...

CITY           SKY/WX    TMP DP  RH WIND       PRES   REMARKS
COLBY KS       CLEAR     46  37  71 W8        30.01R
GOVE KS          N/A     50  32  50 MISG        N/A
LENORA KS        N/A     44  32  63 MISG        N/A
NORTON KS      CLEAR     41  30  65 E6        29.97S
SHARON SPRINGS   N/A     50  37  61 W7          N/A
TRIBUNE KS     PTCLDY    48  37  66 SW13      30.06S
KIT CARSON CO    N/A     49  34  57 MISG        N/A
YUMA CO          N/A     44  32  63 CALM        N/A
$$



USA.gov is the U.S. government's official web portal to all federal, state and local government web resources and services.